www.pogodaiklimat.ru

Погода и климат >> Архив погоды >> Россия >> Чукотка >> Константиновская


ПОГОДА в Константиновской

  • Прогноз погоды в Константиновской
  • Монитор погоды в Константиновской

АРХИВ ПОГОДЫ в Константиновской

Время (UTC), дата Ветер
(напр.,м/с)
 
Видим.   Явления Облачность Т
(С)
Тd
(С)
f
(%)
Тe
(С)
Тes
(С)
Комфортность P
(гПа)
Po
(гПа)
Тmin
(С)
Tmax
(С)
R
(мм)
R24
(мм)
S
(см)
21 11.02 штиль 0
{1}
50 км ясно -48.0 -53.2 55 -48 -48 опасность
обморожения
1016.3 1015.0 -48.0 41
00 12.02 ЮВ 1
{2}
50 км 1/0
[Ci fib]
-42.8 -48.2 55 -48 -48 опасность
обморожения
1015.8 1014.5 -48.3
03 12.02 ЮВ 1
{3}
50 км 3/0
[Ci fib]
-39.1 -43.8 61 -44 -44 опасность
обморожения
1015.6 1014.4
06 12.02 В 1
{2}
50 км 3/0
[Ci fib]
-41.2 -45.8 61 -47 -47 опасность
обморожения
1016.6 1015.3
09 12.02 штиль 0
{1}
50 км ледяные иглы {снег} 3/0
[Ci fib]
-46.2 -51.3 56 -46 -46 опасность
обморожения
1017.9 1016.6 -38.8 0.0
12 12.02 штиль 0
{1}
50 км ледяные иглы {снег} ясно -47.4 -52.2 58 -47 -47 опасность
обморожения
1019.2 1017.9
15 12.02 штиль 0
{2}
50 км ледяные иглы {снег} ясно -47.1 -52.2 56 -47 -47 опасность
обморожения
1020.1 1018.8
18 12.02 штиль 0
{1}
50 км ледяные иглы {снег} ясно -48.9 -54.4 52 -49 -49 опасность
обморожения
1020.9 1019.6
21 12.02 штиль 0
{1}
50 км ледяные иглы {снег} ясно -49.3 -54.4 55 -49 -49 опасность
обморожения
1021.7 1020.4 -49.3 0.0 41
00 13.02 штиль 0
{1}
50 км {снег} 3/0
[Ci fib]
-43.9 -48.2 62 -44 -43 опасность
обморожения
1023.0 1021.7
03 13.02 штиль 0
{2}
50 км 5/0
[Ci fib]
-39.0 -43.8 60 -39 -39 опасность
обморожения
1023.6 1022.3
06 13.02 штиль 0
{2}
50 км 3/0
[Ci fib]
-42.0 -46.9 59 -42 -42 опасность
обморожения
1024.6 1023.3
09 13.02 штиль 0
{1}
50 км ледяные иглы {снег} ясно -47.0 -52.2 55 -47 -47 опасность
обморожения
1026.0 1024.7 -38.9 0.0
12 13.02 В 1
{2}
50 км ледяные иглы {снег} ясно -48.0 -53.2 55 -54 -54 опасность
обморожения
1027.0 1025.7
15 13.02 В 2
{3}
50 км ледяные иглы {снег} ясно -45.2 -49.7 60 -55 -55 опасность
обморожения
1026.4 1025.1
21 13.02 В 1
{4}
50 км ледяные иглы {снег} ясно -40.7 -45.3 61 -46 -46 опасность
обморожения
1024.2 1022.9 -48.1 0.0 41
03 14.02 В 3
{5}
50 км ясно -35.7 -40.0 64 -46 -46 опасность
обморожения
1020.1 1018.9
06 14.02 В 2
{6}
50 км ясно -36.8 -41.1 64 -45 -45 опасность
обморожения
1018.5 1017.3
09 14.02 В 1
{3}
50 км ясно -41.5 -46.3 59 -47 -47 опасность
обморожения
1016.8 1015.5 -35.7 0.0
15 14.02 штиль 0
{2}
50 км ледяные иглы {снег} ясно -46.3 -51.3 57 -46 -46 опасность
обморожения
1013.5 1012.2
18 14.02 штиль 0
{2}
50 км ледяные иглы {снег} ясно -46.2 -51.3 56 -46 -46 опасность
обморожения
1011.4 1010.1
21 14.02 штиль 0
{2}
50 км ледяные иглы {снег} 3/0
[Ci fib]
-43.4 -48.2 59 -43 -43 опасность
обморожения
1009.8 1008.5 -41.6 0.0 41
00 15.02 ЮЗ 1
{2}
50 км {снег} 8/0
[Ci]
-40.8 -45.8 58 -46 -46 опасность
обморожения
1008.3 1007.1
03 15.02 СЗ 1
{3}
50 км 10/0
[Ac trans Cs]
-36.6 -40.7 66 -41 -41 опасность
обморожения
1006.6 1005.4
06 15.02 штиль 0
{3}
50 км 10/0
[Cs]
-36.1 -40.4 64 -36 -36 опасность
обморожения
1005.1 1003.9
09 15.02 штиль 0
{3}
10 км слаб. снег 10/0
[Cs]
-35.8 -40.0 65 -36 -36 опасность
обморожения
1004.5 1003.3 -35.6 0.0
12 15.02 С 1
{3}
10 км слаб. снег 10/0
[As op]
-35.6 -39.7 66 -40 -40 опасность
обморожения
1004.4 1003.2
15 15.02 штиль 0
{2}
50 км в посл. час снег 8/0
[Ac trans Ci fib]
-37.5 -41.8 64 -38 -38 опасность
обморожения
1003.4 1002.2
18 15.02 штиль 0
{1}
50 км {снег} 4/0
[Ac trans Ci fib]
-40.0 -44.8 60 -40 -40 опасность
обморожения
1002.8 1001.5
21 15.02 штиль 0
{2}
10 км снежные кристаллы 3/0
[Ac trans Cs]
-37.0 -41.1 65 -37 -37 опасность
обморожения
1002.9 1001.7 -40.0 0.0 41
00 16.02 СЗ 1
{3}
2000 м снег 10/0
[As op]
-35.6 -39.7 66 -40 -40 опасность
обморожения
1002.2 1001.0
03 16.02 СЗ 1
{3}
4000 м слаб. крупа 10/10 600 м
[Cb cap]
-34.3 -38.5 66 -39 -39 опасность
обморожения
1000.8 999.6
06 16.02 С 2
{4}
10 км слаб. снег 10/10 600 м
[Sc]
-32.2 -35.9 69 -40 -40 опасность
обморожения
1000.0 998.8
09 16.02 СЗ 2
{4}
10 км слаб. снег 10/10 600 м
[Sc]
-32.5 -36.1 70 -40 -40 опасность
обморожения
999.0 997.8 -32.5 0.4
12 16.02 СЗ 3
{6}
2000 м снег 10/6 600 м
[Sc As op]
-30.7 -34.3 71 -40 -40 опасность
обморожения
997.7 996.5
15 16.02 СЗ 3
{6}
2000 м снег 10/4 600 м
[Sc As op]
-29.6 -32.6 75 -39 -39 опасность
обморожения
996.5 995.3
18 16.02 СЗ 3
{8}
2000 м снег 10/4 300 м
[Frnb As op]
-29.0 -32.0 75 -38 -38 опасность
обморожения
996.1 994.9
21 16.02 СЗ 3
{7}
2000 м снег 10/6 300 м
[Frnb As op]
-28.8 -31.8 75 -38 -38 опасность
обморожения
996.3 995.1 -32.5 1 44
00 17.02 СЗ 3
{7}
2000 м снег 10/6 300 м
[Frnb As op]
-28.0 -31.1 75 -37 -37 опасность
обморожения
997.7 996.5
03 17.02 СЗ 2
{8}
2000 м снег 10/6 300 м
[Frnb As op]
-26.9 -30.0 75 -34 -34 опасность
обморожения
998.8 997.6
06 17.02 З 3
{7}
2000 м снег 10/6 300 м
[Frnb As op]
-27.5 -30.6 75 -37 -37 опасность
обморожения
1000.3 999.1
09 17.02 СЗ 2
{6}
4000 м слаб. снег 10/4 300 м
[Frnb Ac As]
-27.8 -30.9 75 -35 -35 опасность
обморожения
1002.1 1000.9 -26.9 2
12 17.02 СЗ 3
{6}
4000 м слаб. снег 10/6 300 м
[Frnb As op]
-27.3 -30.4 75 -36 -36 опасность
обморожения
1003.6 1002.4
15 17.02 СЗ 2
{5}
4000 м слаб. снег 10/8 300 м
[Frnb As op]
-27.2 -30.1 76 -34 -34 опасность
обморожения
1004.9 1003.7
18 17.02 СЗ 1
{5}
4000 м слаб. снег 10/4 300 м
[Frnb As op]
-27.6 -30.6 75 -31 -31 опасность
обморожения
1006.1 1004.9
21 17.02 штиль 0
{2}
4000 м слаб. снег 10/4 300 м
[Frnb As op]
-28.6 -31.6 75 -29 -29 1007.6 1006.4 -28.6 0.7 46
00 18.02 СЗ 1
{2}
10 км снежные кристаллы 10/0
[Cs]
-27.0 -30.1 75 -31 -30 опасность
обморожения
1008.7 1007.5 -29.0
03 18.02 штиль 0
{2}
50 км {снег} 4/0
[Ci fib]
-25.9 -29.8 70 -26 -25 1009.3 1008.1
15 18.02 штиль 0
{2}
10 км снежные кристаллы 10/0
[Cs]
-38.0 -42.3 64 -38 -38 опасность
обморожения
1014.7 1013.5

 

Местоположение метеостанции Константиновская (Чукотка, Россия): широта 68.15 долгота 161.10 высота над уровнем моря 8 м.

В архиве по умолчанию представлена погода в Константиновской за последнюю неделю. Архивные данные за месяц целиком и за предыдущие месяцы, начиная с января 2011 года, Вы можете получить, выбрав интересующий диапазон дат из раскрывающегося списка и нажав кнопку "Ввод!".


*Определитесь, кто Вы:
робот инопланетянин человек

Внимание! Время в таблицах - всемирное. Для получения местного времени необходимо прибавить поправку, которая равна 12 ч.

Смотрите также архив погоды в соседних городах и на ближайших метеорологических станциях:

Погода в Анюйске (Чукотка, Россия) (28 км)
Погода в Черском (Якутия, Россия) (65 км)
Погода в Колымской (Якутия, Россия) (120 км)
Погода в Островном (Чукотка, Россия) (124 км)
Погода в Бухте Амбарчик (Чукотка, Россия) (170 км)
Погода в Билибино (Чукотка, Россия) (220 км)
Погода в Баимке (Чукотка, Россия) (224 км)
Погода в Раучуе (Чукотка, Россия) (264 км)
Погода в Андрюшкино (Якутия, Россия) (290 км)
Погода в Илирнее (Чукотка, Россия) (304 км)

Пояснения к столбцам:

Ветер - указаны скорость ветра в м/с - средняя за 10 мин, порывы в срок и между сроками (в фигурных скобках) и направление, откуда дует ветер: С - северный, СВ - северо-восточный, В - восточный, ЮВ - юго-восточный, Ю - южный, ЮЗ - юго-западный, З - западный, СЗ - северо-западный.
Видимость - горизонтальная дальность видимости в метрах или километрах. При видимости от 1 до 10 км при отсутствии осадков обычно наблюдается дымка, при ухудшении видимости до 1 км и менее - туман. В сухую погоду видимость может ухудшаться дымом, пылью или мглою.
Явления - указаны атмосферные явления, наблюдавшиеся в срок или в последний час перед сроком; фигурными скобками обозначены явления, наблюдавшиеся между сроками (за 1-3 часа до срока); квадратными скобками обозначены град или гололедные отложения с указанием их диаметра в мм.
Облачность - указаны через наклонную черту общая и нижняя облачность в баллах и высота нижней границы облаков в метрах; квадратными скобками обозначены формы облаков: Ci - перистые, Cs - перисто-слоистые, Cc - перисто-кучевые, Ac - высококучевые, As - высокослоистые, Sc - слоисто-кучевые, Ns - слоисто-дождевые, Cu - кучевые, Cb - кучево-дождевые. Подробнее классификацию облаков см. в Атласе облаков (PDF).
T - Температура воздуха - температура, измеренная на высоте 2 м над землей.
Td - Температура точки росы - температура, при понижении до которой содержащийся в воздухе водяной пар достигнет насыщения.
f - Относительная влажность воздуха - влажноcть воздуха, измеренная на высоте 2 м над землей.
Te - Эффективная температура - температура, которую ощущает одетый по сезону человек в тени. Характеристика душности погоды. При расчете учитывается влияние влажности воздуха и скорости ветра на теплоощущения человека.
Tes - Эффективная температура на солнце - температура, которую ощущает человек, с поправкой на солнечный нагрев. Характеристика знойности погоды. Зависит от высоты солнца над горизонтом, облачности и скорости ветра. Ночью, в пасмурную погоду, а также при ветре 12 м/с и более поправка равна нулю.
P - Атмосферное давление - приведенное к уровню моря атмосферное давление.
Po - Атмосферное давление - измеренное на уровне метеостанции атмосферное давление.
Tmin - Минимальная температура - минимум температуры воздуха на высоте 2 м над землей.
Tmax - Максимальная температура - максимум температуры воздуха на высоте 2 м над землей.
R - Количество осадков - Количество выпавших осадков за период времени, мм. При наведении курсора мыши на число - период времени, за который выпало указанное количество осадков.
R24 - Количество осадков - Количество выпавших осадков за 24 часа, мм.
S - Снежный покров - Высота снежного покрова, см. При наведении курсора мыши на число - состояние снежного покрова и степень покрытия местности в баллах.